Regional Weather Roundup
Issued by NWS

Home | Current Version | Previous Version | Graphics & Text | Print | Product List | Glossary On
Versions: 1 2 3 4 5 6 7 8 9 10 11 12 13 14 15 16 17 18 19 20 21 22 23 24 25 26 27 28 29 30 31 32 33 34 35 36 37 38 39 40 41 42 43 44 45 46 47 48 49 50
000
ASUS43 KLSX 181707
RWRMO

WEATHER SUMMARY FOR MISSOURI
NATIONAL WEATHER SERVICE SPRINGFIELD MO
1100 AM CST SAT NOV 18 2017

NOTE: "FAIR" INDICATES FEW OR NO CLOUDS BELOW 12,000 FEET WITH NO
       SIGNIFICANT WEATHER AND/OR OBSTRUCTIONS TO VISIBILITY.
       CURRENT SKY AND/OR WEATHER CONDITIONS ARE NOT AVAILABLE FOR
       CHILLICOTHE AND FARMINGTON.

MOZ001>031-035>038-043-044-053-054-181800-
...NORTHERN AND WESTERN MISSOURI...

CITY           SKY/WX    TMP DP  RH WIND       PRES   REMARKS
KANSAS CTY INT CLOUDY    43  38  82 NW20G33   29.86R
KANSAS C DTWN  CLOUDY    45  37  73 NW16G28   29.86R
LEE`S SUMMIT   CLOUDY    43  41  93 NW23G31   29.84R
ST JOSEPH      CLOUDY    42  36  79 N18G33    29.89R
CHILLICOTHE      N/A     43  40  89 N10G24    29.78R
KIRKSVILLE     LGT RAIN  40  40 100 NW20G26   29.71R

$$
MOZ066>068-077>081-088>096-101>105-181800-
...SOUTHWEST MISSOURI...

CITY           SKY/WX    TMP DP  RH WIND       PRES   REMARKS
SPRINGFIELD    LGT RAIN  47  45  93 NW31G44   29.74R FOG
JOPLIN         LGT RAIN  44  43  96 N22G35    29.89R
BRANSON        CLOUDY    52  48  87 NW26G41   29.71R

$$
MOZ032>034-039>042-045>050-055>058-069>072-181800-
...CENTRAL MISSOURI...

CITY           SKY/WX    TMP DP  RH WIND       PRES   REMARKS
COLUMBIA       RAIN      43  41  93 N28G41    29.64R FOG
JEFFERSON CITY LGT RAIN  45  42  89 NW17G30   29.64R FOG
ROLLA          LGT RAIN  44  43  96 NW21G35   29.60R FOG
SEDALIA        RAIN      43  42  97 NW22G38   29.77R FOG
WHITEMAN AFB   LGT RAIN  42  39  89 NW20G26   29.75R
WARRENSBURG    DRIZZLE   41  37  87 NW12G21   29.81R
OSAGE BEACH    LGT RAIN  45  43  93 NW14G25   29.70R

$$
MOZ051-052-059>065-181800-
...EAST CENTRAL MISSOURI...

CITY           SKY/WX    TMP DP  RH WIND       PRES   REMARKS
ST LOUIS INTL  LGT RAIN  48  45  89 NW26G37   29.47R
SPIRIT OF STL  CLOUDY    48  45  89 NW20G29   29.51R
ST CHARLES     LGT RAIN  47  44  90 NW22G30   29.49R

$$
MOZ072>076-082>087-097>100-106>115-181800-
...SOUTH CENTRAL AND SOUTHEAST MISSOURI...

CITY           SKY/WX    TMP DP  RH WIND       PRES   REMARKS
CAPE GIRARDEAU MOSUNNY   69  62  78 S18G28    29.43F
FARMINGTON     CLOUDY    75  61  61 SW22G30   29.37F
POPLAR BLUFF   CLOUDY    72  64  76 SW20G35   29.45F
WEST PLAINS    CLOUDY    59  51  75 NW24G41   29.58R

$$


USA.gov is the U.S. government's official web portal to all federal, state and local government web resources and services.